User: anonymous   Login
Location: Unspecified
(0.0000°N, 0.0000°E)
Time: 10:34:12
(UTC+02:00)
Language:

CZ-4 DEB - Orbit

View from above orbital plane
View from above orbital plane
View from above satellite
View from above satellite

Ground track
Ground track

The orbit data is extracted from the following two-line orbital elements,

1 29508U 06046D   15244.67233297  .00013135  00000-0  42493-3 0  9993
2 29508  97.6837 266.2503 0004606 169.7505 309.2864 15.32186642484432
Epoch (UTC): 01 September 2015 16:08:09
Eccentricity: 0.0004606
inclination: 97.6837°
perigee height: 466 km
apogee height: 472 km
right ascension of ascending node: 266.2503°
argument of perigee: 169.7505°
revolutions per day: 15.32186642
mean anomaly at epoch: 309.2864°
orbit number at epoch: 48443

The dashed part of the orbit path shows where the satellite is in the earth's shadow,  

DLR